Regional Weather Roundup
Issued by NWS

Home | Current Version | Previous Version | Text Only | Print | Product List | Glossary On
Versions: 1 2 3 4 5 6 7 8 9 10 11 12 13 14 15 16 17 18 19 20 21 22 23 24 25 26 27 28 29 30 31 32 33 34 35 36 37 38 39 40 41 42 43 44 45 46 47 48 49 50
000
ASUS43 KTOP 231608
RWRKS

WEATHER ROUNDUP FOR KANSAS
NATIONAL WEATHER SERVICE GOODLAND KS
1000 AM CST SUN NOV 23 2014

NOTE:  "FAIR" INDICATES FEW OR NO CLOUDS BELOW 12,000 FEET WITH NO
SIGNIFICANT WEATHER AND/OR OBSTRUCTIONS TO VISIBILITY.

KSZ001>006-013>018-027>032-041>047-231700-
NORTHWEST KANSAS

CITY           SKY/WX    TMP DP  RH WIND       PRES   REMARKS
GOODLAND       CLOUDY    41  17  38 N23G31    29.69S
HAYS           CLOUDY    48  32  53 N30G39    29.57R
HILL CITY      LGT RAIN  43  34  70 N33G47    29.66R
RUSSELL        CLOUDY    48  37  65 N29G39    29.53R
$$

KSZ061>065-074>080-084>089-231700-
SOUTHWEST KANSAS

CITY           SKY/WX    TMP DP  RH WIND       PRES   REMARKS
DODGE CITY     MOSUNNY   47  33  58 N31G44    29.53R
ELKHART          N/A    N/A N/A N/A MISG        N/A
GARDEN CITY    CLOUDY    45  28  51 N35G44    29.61R
GREAT BEND     CLOUDY    46  37  71 N25G38    29.51R
LIBERAL        MOSUNNY   50  30  46 N37G51    29.60R
PRATT          CLOUDY    52  46  82 N9        29.47S
$$

KSZ066>073-081>083-090>101-231700-
SOUTHEAST KANSAS

CITY           SKY/WX    TMP DP  RH WIND       PRES   REMARKS
CHANUTE        CLOUDY    59  55  87 S13       29.46F
COFFEYVILLE    CLOUDY    60  55  83 S15G22    29.47F
HUTCHINSON     CLOUDY    54  51  90 NW3       29.46F
MEDICINE LODGE   N/A     53  49  86 N7        29.43S
NEWTON         CLOUDY    54  46  76 W9        29.47F
PARSONS        CLOUDY    60  55  83 S16G23    29.47F
WICHITA INTL   CLOUDY    54  50  86 SW7       29.45S
WICHITA JABRA  CLOUDY    54  50  86 W9        29.45R
WICHITA MCCONL CLOUDY    54  54 100 SW8       29.45R
WINFIELD       CLOUDY    57  52  83 S12       29.43F
$$

KSZ007>012-019>026-033>040-048>060-102>105-231700-
NORTHEAST KANSAS

CITY           SKY/WX    TMP DP  RH WIND       PRES   REMARKS
CONCORDIA      LGT RAIN  48  42  80 N16G29    29.51R
EMPORIA        LGT RAIN  55  53  93 SE5       29.46F FOG
LAWRENCE       CLOUDY    56  52  86 CALM      29.49S FOG
MANHATTAN      CLOUDY    55  54  96 CALM      29.47S
MARYSVILLE     PTSUNNY   55  54  94 W7        29.46F
OLATHE IND     CLOUDY    55  54  96 S5        29.49F
OLATHE EXE     CLOUDY    55  55 100 S5        29.48F FOG
SALINA         CLOUDY    54  52  93 S3        29.47F
TOPEKA BILLARD LGT RAIN  57  55  93 SE5       29.47F FOG
TOPEKA FORBES  LGT RAIN  57  54  89 SE5       29.47F FOG
$$



USA.gov is the U.S. government's official web portal to all federal, state and local government web resources and services.